Williston, ND

8:08 AM CST on December 15, 2019 (GMT -0600)
Sloulin International

Weather History for KISN - August, 2019

Change the Weather History Date:

Friday, August 23, 2019

  Actual Average Record
Temperature  
Mean Temperature 75 °F 67 °F  
Max Temperature 85 °F 82 °F 103 °F (1937)
Min Temperature 65 °F 52 °F 35 °F (1928)
Degree Days  
Heating Degree Days 0 2  
Month to date heating degree days 19 27  
Since 1 June heating degree days 104 171  
Since 1 July heating degree days 34 51  
Cooling Degree Days 10 4  
Month to date cooling degree days 115 139  
Year to date cooling degree days 359 402  
Since 1 June cooling degree days 353 389  
Growing Degree Days 24 (Base 50)    
Moisture  
Dew Point 64 °F    
Average Humidity 68    
Maximum Humidity 87    
Minimum Humidity 48    
Precipitation  
Precipitation 0.05 in 0.04 in 1.33 in (1968)
Month to date precipitation 1.93 1.09  
Year to date precipitation 11.59 10.76  
Sea Level Pressure  
Sea Level Pressure 29.88 in    
Wind  
Wind Speed 8 mph (SE)    
Max Wind Speed 18 mph    
Max Gust Speed 34 mph    
Visibility 10 miles    
Events Rain , Thunderstorm    
T = Trace of Precipitation, MM = Missing Value Source: NWS Daily Summary

Daily Weather History Graph

Daily Weather History Graph

Search for Another Location

Airport or City:

Astronomy

Aug. 23, 2019 Rise Set
Actual Time 6:59 AM CDT 8:53 PM CDT
Civil Twilight 6:26 AM CDT 9:26 PM CDT
Nautical Twilight 5:45 AM CDT 10:07 PM CDT
Astronomical Twilight 4:59 AM CDT 10:52 PM CDT
Moon 12:14 AM CDT (8/23) 3:14 PM CDT (8/23)
Length of Visible Light 15h 00m
Length of Day
13h 54m
Waning Gibbous, 49% of the Moon is Illuminated
Aug 23
Waning Gibbous
Aug 30
New
Sep 5
First Quarter
Sep 13
Full
Sep 21
Last Quarter

Hourly Weather History & Observations

Time (CDT) Temp. Heat Index Dew Point Humidity Pressure Visibility Wind Dir Wind Speed Gust Speed Precip Events Conditions
12:19 AM 71.1 °F - 63.0 °F 75% 29.86 in 10.0 mi SE 12.7 mph 29.9 mph N/A   Scattered Clouds
12:52 AM 71.1 °F - 62.1 °F 73% 29.85 in 10.0 mi SSE 11.5 mph - N/A   Clear
1:52 AM 70.0 °F - 62.1 °F 76% 29.85 in 10.0 mi SSE 15.0 mph 33.4 mph N/A   Clear
2:52 AM 68.0 °F - 62.1 °F 81% 29.85 in 10.0 mi SE 10.4 mph - N/A   Partly Cloudy
3:35 AM 69.1 °F - 63.0 °F 81% 29.89 in 10.0 mi SSE 9.2 mph - N/A   Mostly Cloudy
3:52 AM 69.1 °F - 62.1 °F 78% 29.85 in 10.0 mi SE 11.5 mph 20.7 mph N/A   Overcast
4:15 AM 69.1 °F - 62.1 °F 78% 29.88 in 10.0 mi SE 9.2 mph - N/A   Scattered Clouds
4:52 AM 68.0 °F - 62.1 °F 81% 29.84 in 10.0 mi SE 10.4 mph 18.4 mph N/A   Scattered Clouds
4:58 AM 68.0 °F - 62.1 °F 81% 29.88 in 10.0 mi SE 8.1 mph 18.4 mph N/A   Mostly Cloudy
5:31 AM 68.0 °F - 62.1 °F 81% 29.88 in 10.0 mi SE 12.7 mph - N/A   Scattered Clouds
5:52 AM 66.9 °F - 61.0 °F 81% 29.84 in 10.0 mi ESE 10.4 mph 32.2 mph N/A   Clear
6:35 AM 66.9 °F - 61.0 °F 81% 29.89 in 10.0 mi ESE 10.4 mph 18.4 mph N/A   Overcast
6:52 AM 64.9 °F - 62.1 °F 90% 29.85 in 5.0 mi Calm Calm - 0.05 in Rain , Thunderstorm Rain
7:09 AM 64.9 °F - 62.1 °F 90% 29.88 in 10.0 mi North - - 0.00 in Rain Light Rain
7:52 AM 64.9 °F - 62.1 °F 90% 29.88 in 10.0 mi SE 6.9 mph - 0.00 in   Overcast
8:10 AM 64.9 °F - 62.1 °F 90% 29.92 in 10.0 mi SSE 8.1 mph - N/A   Overcast
8:52 AM 66.0 °F - 62.1 °F 87% 29.88 in 10.0 mi SE 4.6 mph - N/A   Mostly Cloudy
8:57 AM 66.0 °F - 62.1 °F 87% 29.91 in 10.0 mi SSE 5.8 mph - N/A   Mostly Cloudy
9:52 AM 66.9 °F - 63.0 °F 87% 29.89 in 10.0 mi SE 3.5 mph - 0.00 in Rain Light Rain
10:52 AM 68.0 °F - 63.0 °F 84% 29.90 in 10.0 mi SSE 4.6 mph - 0.00 in Rain Light Rain
11:29 AM 71.1 °F - 64.9 °F 81% 29.92 in 10.0 mi SE 5.8 mph - 0.00 in   Overcast
11:52 AM 72.0 °F - 64.9 °F 78% 29.90 in 10.0 mi Variable 3.5 mph - 0.00 in   Overcast
12:52 PM 75.9 °F - 66.9 °F 74% 29.89 in 10.0 mi South 8.1 mph - N/A   Mostly Cloudy
12:57 PM 75.9 °F - 66.9 °F 74% 29.92 in 10.0 mi South 8.1 mph - N/A   Scattered Clouds
1:52 PM 78.1 °F - 68.0 °F 71% 29.88 in 10.0 mi Variable 3.5 mph - N/A   Partly Cloudy
2:14 PM 79.0 °F - 66.9 °F 66% 29.91 in 10.0 mi Calm Calm - N/A   Mostly Cloudy
2:52 PM 80.1 °F 82.1 °F 66.0 °F 62% 29.88 in 10.0 mi Calm Calm - N/A   Mostly Cloudy
2:59 PM 80.1 °F 82.3 °F 66.9 °F 64% 29.91 in 10.0 mi Variable 3.5 mph - N/A   Mostly Cloudy
3:04 PM 82.0 °F 84.5 °F 66.9 °F 60% 29.90 in 10.0 mi Variable 4.6 mph - N/A   Overcast
3:17 PM 80.1 °F 82.3 °F 66.9 °F 64% 29.90 in 10.0 mi Variable 3.5 mph - N/A   Overcast
3:52 PM 81.0 °F 83.0 °F 66.0 °F 60% 29.87 in 10.0 mi Variable 3.5 mph - N/A   Mostly Cloudy
4:52 PM 84.0 °F 84.9 °F 63.0 °F 49% 29.86 in 10.0 mi SSW 5.8 mph - N/A   Partly Cloudy
5:52 PM 84.0 °F 84.9 °F 63.0 °F 49% 29.85 in 10.0 mi South 5.8 mph - N/A   Partly Cloudy
6:52 PM 84.0 °F 84.9 °F 63.0 °F 49% 29.84 in 10.0 mi Variable 3.5 mph - N/A   Clear
7:43 PM 78.1 °F - 64.9 °F 64% 29.88 in 10.0 mi ESE 16.1 mph - N/A Thunderstorm Scattered Clouds
7:52 PM 78.1 °F - 64.9 °F 64% 29.85 in 10.0 mi SE 12.7 mph 20.7 mph N/A Thunderstorm Partly Cloudy
7:58 PM 77.0 °F - 66.0 °F 69% 29.88 in 10.0 mi SE 16.1 mph 21.9 mph N/A   Partly Cloudy
8:52 PM 75.0 °F - 66.9 °F 76% 29.86 in 10.0 mi SE 9.2 mph 17.3 mph N/A   Partly Cloudy
9:52 PM 72.0 °F - 68.0 °F 87% 29.86 in 10.0 mi ESE 6.9 mph - N/A   Clear
10:52 PM 73.0 °F - 68.0 °F 84% 29.87 in 10.0 mi South 8.1 mph - N/A   Clear
11:52 PM 72.0 °F - 66.9 °F 84% 29.86 in 10.0 mi South 6.9 mph - N/A   Clear